スコッティ彗星

431P/Scotti (2009)

English version
Home page
Updated on October 6, 2021

---------------------------------------------------------------------

・ プロフィール

・ 軌道要素

Epoch 2009 May 9.0 TT = JDT 2454960.5                                           
T 2009 Apr. 30.98610 TT                                 Rudenko                 
q   1.7498486            (2000.0)            P               Q                  
n   0.15538289     Peri.  198.75809     +0.75140846     -0.64188725             
a   3.4266304      Node   203.37744     +0.64390156     +0.76391954             
e   0.4893384      Incl.   22.65890     +0.14413921     -0.06639053             
P   6.34                                                                        
From 372 observations 2002 Nov. 16-2016 Mar. 2, mean residual 0".8.             

・ 光度変化

        m1 = 15.5 + 5 logΔ + 10.0 log r

---------------------------------------------------------------------

軌道要素はM.P.E.C. 2021-R75に掲載されたものです。
光度グラフはComet for Windowsで作成したものです。

---------------------------------------------------------------------

Copyright(C) Seiichi Yoshida (comet@aerith.net). All rights reserved.